| time (UTC) | temp F | wind direction | speed knots | gust knots | rain 1hr in | rain 24hr in | rain mn in | humidity % | barometer mb |
| 20260504120124 | 43 | 313 | 3.5 | 6.1 | 0.00 | 0.00 | 0.00 | 68 | 1015.0 |
| 20260504081510 | 46 | 72 | 13.0 | 20.9 | 0.00 | 0.00 | 0.00 | 60 | 1014.2 |
| 20260504050016 | 54 | 57 | 18.2 | 26.9 | 0.00 | 0.00 | 0.00 | 40 | 1010.6 |
| 20260504044518 | 55 | 34 | 16.5 | 26.1 | 0.00 | 0.00 | 0.00 | 40 | 1010.3 |
| 20260504043013 | 57 | 63 | 14.8 | 20.9 | 0.00 | 0.00 | 0.00 | 40 | 1010.0 |
| 20260504041610 | 58 | 39 | 13.9 | 20.0 | 0.00 | 0.00 | 0.00 | 38 | 1009.5 |
| 20260504040007 | 58 | 59 | 10.4 | 15.6 | 0.00 | 0.00 | 0.00 | 37 | 1009.3 |
| 20260504034508 | 58 | 69 | 9.6 | 15.6 | 0.00 | 0.00 | 0.00 | 37 | 1009.0 |
| 20260504033004 | 58 | 49 | 9.6 | 15.6 | 0.00 | 0.00 | 0.00 | 38 | 1008.8 |
| 20260504031509 | 59 | 65 | 10.4 | 16.5 | 0.00 | 0.00 | 0.00 | 38 | 1008.3 |
| 20260504030118 | 59 | 72 | 13.0 | 18.2 | 0.00 | 0.00 | 0.00 | 38 | 1008.1 |
| 20260504024558 | 60 | 65 | 11.3 | 18.2 | 0.00 | 0.00 | 0.00 | 37 | 1007.9 |
| 20260504023058 | 62 | 62 | 9.6 | 13.0 | 0.00 | 0.00 | 0.00 | 33 | 1007.8 |
| 20260504021554 | 64 | 27 | 5.2 | 9.6 | 0.00 | 0.00 | 0.00 | 27 | 1007.9 |
| 20260504020055 | 66 | 355 | 2.6 | 9.6 | 0.00 | 0.00 | 0.00 | 26 | 1007.9 |
| 20260504014550 | 67 | 50 | 5.2 | 11.3 | 0.00 | 0.00 | 0.00 | 23 | 1008.1 |
| 20260504013052 | 69 | 343 | 7.8 | 11.3 | 0.00 | 0.00 | 0.00 | 23 | 1008.2 |
| 20260504011546 | 71 | 290 | 8.7 | 13.0 | 0.00 | 0.00 | 0.00 | 22 | 1008.1 |
| 20260504010053 | 71 | 342 | 5.2 | 13.9 | 0.00 | 0.00 | 0.00 | 22 | 1008.2 |
| 20260504004544 | 72 | 355 | 7.8 | 14.8 | 0.00 | 0.00 | 0.00 | 22 | 1008.3 |
| 20260504003038 | 72 | 338 | 7.0 | 13.9 | 0.00 | 0.00 | 0.00 | 21 | 1008.4 |
| 20260504001539 | 72 | 324 | 8.7 | 16.5 | 0.00 | 0.00 | 0.00 | 22 | 1008.6 |
| 20260504000033 | 73 | 52 | 7.0 | 13.9 | 0.00 | 0.00 | 0.00 | 22 | 1008.6 |
| 20260503234535 | 73 | 333 | 5.2 | 14.8 | 0.00 | 0.00 | 0.00 | 21 | 1008.6 |
| 20260503233028 | 73 | 333 | 8.7 | 20.0 | 0.00 | 0.00 | 0.00 | 21 | 1008.7 |
| 20260503231527 | 73 | 318 | 5.2 | 17.4 | 0.00 | 0.00 | 0.00 | 21 | 1008.8 |
| 20260503230029 | 73 | 333 | 5.2 | 17.4 | 0.00 | 0.00 | 0.00 | 20 | 1008.8 |
| 20260503224521 | 74 | 352 | 7.0 | 15.6 | 0.00 | 0.00 | 0.00 | 21 | 1009.0 |
| 20260503223019 | 73 | 345 | 9.6 | 17.4 | 0.00 | 0.00 | 0.00 | 21 | 1009.0 |
| 20260503221516 | 73 | 35 | 7.8 | 17.4 | 0.00 | 0.00 | 0.00 | 21 | 1009.2 |
| 20260503220020 | 74 | 297 | 9.6 | 16.5 | 0.00 | 0.00 | 0.00 | 21 | 1009.5 |
| 20260503214515 | 73 | 340 | 8.7 | 16.5 | 0.00 | 0.00 | 0.00 | 21 | 1009.7 |
| 20260503213002 | 72 | 285 | 7.0 | 16.5 | 0.00 | 0.00 | 0.00 | 21 | 1009.7 |
| 20260503211602 | 73 | 326 | 9.6 | 15.6 | 0.00 | 0.00 | 0.00 | 20 | 1010.1 |
| 20260503210056 | 72 | 311 | 7.0 | 14.8 | 0.00 | 0.00 | 0.00 | 22 | 1010.2 |
| 20260503204551 | 72 | 348 | 9.6 | 14.8 | 0.00 | 0.00 | 0.00 | 21 | 1010.6 |
| 20260503203048 | 71 | 333 | 10.4 | 14.8 | 0.00 | 0.00 | 0.00 | 23 | 1010.5 |
| 20260503201548 | 70 | 344 | 9.6 | 17.4 | 0.00 | 0.00 | 0.00 | 22 | 1010.8 |
| 20260503200040 | 71 | 323 | 10.4 | 17.4 | 0.00 | 0.00 | 0.00 | 23 | 1011.0 |
| 20260503194540 | 70 | 350 | 9.6 | 16.5 | 0.00 | 0.00 | 0.00 | 23 | 1011.1 |
| 20260503193031 | 70 | 323 | 8.7 | 13.9 | 0.00 | 0.00 | 0.00 | 25 | 1011.2 |
| 20260503191529 | 70 | 330 | 7.0 | 13.0 | 0.00 | 0.00 | 0.00 | 23 | 1011.3 |
| 20260503190037 | 69 | 322 | 8.7 | 13.9 | 0.00 | 0.00 | 0.00 | 24 | 1011.5 |
| 20260503184524 | 69 | 321 | 4.3 | 13.0 | 0.00 | 0.00 | 0.00 | 23 | 1011.4 |
| 20260503183021 | 69 | 309 | 8.7 | 13.9 | 0.00 | 0.00 | 0.00 | 24 | 1011.8 |
| 20260503181537 | 68 | 274 | 3.5 | 14.8 | 0.00 | 0.00 | 0.00 | 24 | 1011.9 |
| 20260503180024 | 69 | 318 | 7.0 | 13.0 | 0.00 | 0.00 | 0.00 | 26 | 1012.1 |
| 20260503174509 | 68 | 324 | 5.2 | 13.9 | 0.00 | 0.00 | 0.00 | 26 | 1012.3 |
| 20260503173006 | 68 | 1 | 8.7 | 12.2 | 0.00 | 0.00 | 0.00 | 25 | 1012.5 |
| 20260503171504 | 68 | 334 | 7.0 | 15.6 | 0.00 | 0.00 | 0.00 | 25 | 1012.5 |
| 20260503170112 | 68 | 51 | 6.1 | 15.6 | 0.00 | 0.00 | 0.00 | 26 | 1012.5 |